Home   Weather   Santiago   Past weeks
Flag for Chile

Past Weather in Santiago, Chile — Yesterday and Last 2 Weeks

Now
70 °F

Sunny.


Feels Like: 70 °F
Forecast: 84 / 65 °F
Wind: 3 mph from North

Location: Pudahuel

Current Time: Nov 21, 2019 at 10:02:07 am

Latest Report: Nov 21, 2019 at 9:00 am


Visibility: 10 mi

Pressure: 29.92 "Hg (27.98 "Hg at 576m altitude)

Humidity: 43%

Dew Point: 46 °F

Location of SantiagoLocation

Past Weather in Santiago — Graph

°F

Santiago Temperature Yesterday

Maximum temperature yesterday: 93 °F (at 2:00 pm)
Minimum temperature yesterday: 55 °F (at 7:00 am)
Average temperature yesterday: 75 °F

High & Low Weather Summary for the Past Weeks

 TemperatureHumidityPressure
High93 °F (Nov 9, 3:00 pm)94% (Nov 13, 6:43 am)30.04 "Hg (Nov 13, 6:43 am)
Low52 °F (Nov 9, 6:00 am)11% (Nov 9, 4:00 pm)29.80 "Hg (Nov 8, 3:00 am)
Average72 °F40%29.94 "Hg
* Reported Nov 6 9:00 am — Nov 21 9:00 am, Santiago. Weather by CustomWeather, © 2019

Note: Actual official high and low records may vary slightly from our data, if they occured in-between our weather recording intervals... More about our weather records

Advertising

Santiago Weather History for the Previous 24 Hours

Scroll right to see more
 ConditionsComfort  
Time TempWeatherWind HumidityBarometerVisibility
9:00 am
Thu, Nov 21
70 °FSunny.3 mph43%29.92 "Hg10 mi
8:00 am64 °FSunny.No wind52%29.92 "Hg10 mi
7:00 am63 °FSunny.1 mph56%29.92 "Hg10 mi
6:00 am61 °FPassing clouds.3 mph55%29.89 "HgN/A
5:00 am61 °FClear.No wind52%29.89 "Hg10 mi
4:00 am63 °FClear.5 mph49%29.89 "Hg10 mi
3:00 am61 °FClear.1 mph52%29.89 "Hg10 mi
2:00 am66 °FClear.3 mph49%29.92 "Hg10 mi
1:00 am68 °FClear.7 mph46%29.92 "Hg10 mi
12:00 am72 °FClear.9 mph38%29.92 "Hg10 mi
11:00 pm
Wed, Nov 20
72 °FClear.7 mph36%29.92 "Hg10 mi
10:00 pm75 °FClear.8 mph29%29.92 "Hg10 mi
9:00 pm81 °FClear.12 mph21%29.92 "Hg10 mi
8:00 pm82 °FSunny.14 mph17%29.89 "Hg10 mi
7:00 pm86 °FSunny.21 mph15%29.89 "Hg10 mi
6:00 pm88 °FSunny.23 mph15%29.89 "Hg10 mi
5:00 pm90 °FSunny.21 mph14%29.89 "Hg10 mi
4:00 pm91 °FPassing clouds.20 mph14%29.89 "HgN/A
3:00 pm93 °FPassing clouds.15 mph12%29.89 "HgN/A
2:00 pm93 °FPassing clouds.9 mph12%29.92 "HgN/A
1:00 pm90 °FPassing clouds.10 mph16%29.92 "HgN/A
12:00 pm86 °FPassing clouds.9 mph19%29.95 "HgN/A
11:00 am79 °FSunny.5 mph26%29.95 "Hg10 mi
10:00 am73 °FSunny.1 mph33%29.98 "Hg10 mi
Weather by CustomWeather, © 2019

See weather overview